• In Sweden
  • List of Countries
  • For 7 days
  • Water Temperature
  • Satellite Maps
  • Weather Map
  • Weather Widgets
  • user-avatar
    Login

    Hourly Weather Barnsley

    Today, 22 January, Monday

    Time Temperature Precipitation Wind Pressure Humidity
    00:00 +3°C° 0 mm 5 mps 742 mmHg 94%
    01:00 +4°C° 0 mm 4 mps 743 mmHg 94%
    02:00 +3°C° 0 mm 4 mps 743 mmHg 94%
    03:00 +3°C° 0 mm 3 mps 743 mmHg 94%
    04:00 +3°C° 0 mm 4 mps 744 mmHg 93%
    05:00 +3°C° 0 mm 4 mps 744 mmHg 93%
    06:00 +3°C° 0 mm 4 mps 744 mmHg 93%
    07:00 +3°C° 0 mm 4 mps 745 mmHg 92%
    08:00 +3°C° 0 mm 4 mps 745 mmHg 91%
    09:00 +3°C° 0 mm 4 mps 746 mmHg 90%
    10:00 +4°C° 0 mm 4 mps 747 mmHg 88%
    11:00 +5°C° 0 mm 5 mps 747 mmHg 86%
    12:00 +6°C° 0 mm 5 mps 748 mmHg 83%
    13:00 +5°C° 0 mm 5 mps 748 mmHg 84%
    14:00 +5°C° 0 mm 5 mps 748 mmHg 84%
    15:00 +5°C° 0 mm 4 mps 749 mmHg 84%
    16:00 +5°C° 0 mm 4 mps 749 mmHg 85%
    17:00 +4°C° 0 mm 4 mps 749 mmHg 87%
    18:00 +3°C° 0 mm 3 mps 750 mmHg 88%
    19:00 +3°C° 0 mm 3 mps 750 mmHg 89%
    20:00 +3°C° 0 mm 3 mps 750 mmHg 89%
    21:00 +3°C° 0 mm 4 mps 750 mmHg 90%
    22:00 +3°C° 0 mm 4 mps 750 mmHg 90%
    23:00 +3°C° 0 mm 4 mps 750 mmHg 91%

    Tomorrow, 23 January, Tuesday

    Time Temperature Precipitation Wind Pressure Humidity
    00:00 +3°C° 0 mm 4 mps 750 mmHg 91%
    01:00 +3°C° 0 mm 4 mps 750 mmHg 92%
    02:00 +3°C° 0 mm 4 mps 749 mmHg 92%
    03:00 +3°C° 0 mm 4 mps 749 mmHg 93%
    04:00 +2°C° 0.1 mm 5 mps 748 mmHg 93%
    05:00 +3°C° 0.1 mm 5 mps 747 mmHg 93%
    06:00 +4°C° 0.1 mm 6 mps 747 mmHg 93%
    07:00 +5°C° 0 mm 6 mps 746 mmHg 93%
    08:00 +7°C° 0 mm 6 mps 746 mmHg 94%
    09:00 +8°C° 0 mm 6 mps 745 mmHg 94%
    10:00 +8°C° 0 mm 7 mps 745 mmHg 91%
    11:00 +9°C° 0 mm 7 mps 745 mmHg 88%
    12:00 +10°C° 0 mm 8 mps 745 mmHg 84%
    13:00 +10°C° 0.1 mm 8 mps 744 mmHg 85%
    14:00 +10°C° 0.1 mm 8 mps 744 mmHg 85%
    15:00 +10°C° 0.1 mm 7 mps 744 mmHg 86%
    16:00 +10°C° 0.1 mm 7 mps 744 mmHg 86%
    17:00 +9°C° 0.1 mm 6 mps 744 mmHg 87%
    18:00 +9°C° 0.1 mm 6 mps 744 mmHg 88%
    19:00 +8°C° 0.1 mm 6 mps 744 mmHg 88%
    20:00 +8°C° 0.1 mm 5 mps 744 mmHg 88%
    21:00 +8°C° 0.1 mm 5 mps 744 mmHg 89%
    22:00 +8°C° 0.2 mm 6 mps 744 mmHg 87%
    23:00 +8°C° 0.2 mm 7 mps 743 mmHg 86%

    Day after tomorrow, 24 January, Wednesday

    Time Temperature Precipitation Wind Pressure Humidity
    00:00 +8°C° 0.2 mm 7 mps 743 mmHg 85%
    01:00 +9°C° 0.3 mm 8 mps 741 mmHg 84%
    02:00 +8°C° 0.3 mm 9 mps 740 mmHg 83%
    03:00 +9°C° 0.3 mm 10 mps 739 mmHg 82%
    04:00 +8°C° 0.6 mm 10 mps 739 mmHg 82%
    05:00 +8°C° 0.6 mm 11 mps 739 mmHg 82%
    06:00 +8°C° 0.6 mm 11 mps 738 mmHg 82%
    07:00 +7°C° 0.6 mm 9 mps 738 mmHg 80%
    08:00 +6°C° 0.6 mm 7 mps 739 mmHg 78%
    09:00 +5°C° 0.6 mm 6 mps 739 mmHg 76%
    10:00 +6°C° 0.2 mm 5 mps 740 mmHg 74%
    11:00 +6°C° 0.2 mm 5 mps 740 mmHg 72%
    12:00 +6°C° 0.2 mm 5 mps 740 mmHg 70%
    13:00 +6°C° 0 mm 5 mps 740 mmHg 70%
    14:00 +6°C° 0 mm 5 mps 740 mmHg 69%
    15:00 +6°C° 0 mm 5 mps 740 mmHg 69%
    16:00 +6°C° 0 mm 5 mps 740 mmHg 71%
    17:00 +5°C° 0 mm 5 mps 739 mmHg 74%
    18:00 +3°C° 0 mm 5 mps 739 mmHg 76%
    19:00 +3°C° 0.1 mm 5 mps 740 mmHg 77%
    20:00 +3°C° 0.1 mm 5 mps 740 mmHg 79%
    21:00 +3°C° 0.1 mm 6 mps 740 mmHg 81%
    22:00 +3°C° 0.1 mm 5 mps 740 mmHg 81%
    23:00 +3°C° 0.1 mm 5 mps 740 mmHg 82%

    25 January, Thursday

    Time Temperature Precipitation Wind Pressure Humidity
    00:00 +2°C° 0.1 mm 5 mps 740 mmHg 82%
    01:00 +2°C° 0 mm 6 mps 740 mmHg 82%
    02:00 +2°C° 0 mm 6 mps 740 mmHg 81%
    03:00 +2°C° 0 mm 6 mps 740 mmHg 81%
    04:00 +2°C° 0 mm 6 mps 739 mmHg 80%
    05:00 +2°C° 0 mm 6 mps 739 mmHg 78%
    06:00 +2°C° 0 mm 6 mps 739 mmHg 77%
    07:00 +2°C° 0 mm 6 mps 740 mmHg 78%
    08:00 +2°C° 0 mm 6 mps 740 mmHg 78%
    09:00 +2°C° 0 mm 6 mps 740 mmHg 79%
    10:00 +3°C° 0 mm 7 mps 740 mmHg 75%
    11:00 +4°C° 0 mm 7 mps 740 mmHg 72%
    12:00 +5°C° 0 mm 7 mps 740 mmHg 68%
    13:00 +5°C° 0.1 mm 7 mps 740 mmHg 68%
    14:00 +5°C° 0.1 mm 6 mps 740 mmHg 68%
    15:00 +5°C° 0.1 mm 6 mps 739 mmHg 67%
    16:00 +4°C° 0 mm 6 mps 740 mmHg 71%
    17:00 +3°C° 0 mm 5 mps 740 mmHg 74%
    18:00 +3°C° 0 mm 5 mps 740 mmHg 77%
    19:00 +2°C° 0 mm 5 mps 740 mmHg 79%
    20:00 +2°C° 0 mm 5 mps 741 mmHg 82%
    21:00 +3°C° 0 mm 4 mps 741 mmHg 85%
    22:00 +3°C° 0.1 mm 4 mps 742 mmHg 85%
    23:00 +2°C° 0.1 mm 5 mps 743 mmHg 86%

    26 January, Friday

    Time Temperature Precipitation Wind Pressure Humidity
    00:00 +2°C° 0.1 mm 5 mps 744 mmHg 87%
    01:00 +2°C° 0.1 mm 5 mps 745 mmHg 84%
    02:00 +2°C° 0.1 mm 6 mps 746 mmHg 80%
    03:00 +2°C° 0.1 mm 7 mps 747 mmHg 77%
    04:00 +1°C° 0 mm 6 mps 749 mmHg 76%
    05:00 -1°C° 0 mm 6 mps 750 mmHg 75%
    06:00 -1°C° 0 mm 6 mps 751 mmHg 75%
    07:00 -1°C° 0 mm 5 mps 753 mmHg 73%
    08:00 -1°C° 0 mm 5 mps 754 mmHg 71%
    09:00 -1°C° 0 mm 5 mps 755 mmHg 69%
    10:00 0°C° 0 mm 5 mps 756 mmHg 65%
    11:00 +1°C° 0 mm 5 mps 757 mmHg 60%
    12:00 +2°C° 0 mm 6 mps 757 mmHg 56%
    13:00 +2°C° 0 mm 5 mps 758 mmHg 56%
    14:00 +2°C° 0 mm 5 mps 758 mmHg 56%
    15:00 +3°C° 0 mm 4 mps 759 mmHg 56%
    16:00 +1°C° 0 mm 4 mps 759 mmHg 60%
    17:00 0°C° 0 mm 4 mps 760 mmHg 63%
    18:00 0°C° 0 mm 3 mps 761 mmHg 67%
    19:00 0°C° 0 mm 3 mps 761 mmHg 68%
    20:00 0°C° 0 mm 3 mps 762 mmHg 69%
    21:00 -1°C° 0 mm 2 mps 762 mmHg 69%
    22:00 -1°C° 0 mm 2 mps 762 mmHg 70%
    23:00 +1°C° 0 mm 2 mps 763 mmHg 71%

    27 January, Saturday

    Time Temperature Precipitation Wind Pressure Humidity
    00:00 +1°C° 0 mm 2 mps 763 mmHg 71%
    01:00 +1°C° 0 mm 2 mps 763 mmHg 72%
    02:00 0°C° 0 mm 3 mps 763 mmHg 73%
    03:00 +1°C° 0 mm 3 mps 763 mmHg 74%
    04:00 +1°C° 0.1 mm 3 mps 762 mmHg 75%
    05:00 +1°C° 0.1 mm 3 mps 762 mmHg 75%
    06:00 0°C° 0.1 mm 4 mps 762 mmHg 76%
    07:00 +1°C° 0.3 mm 4 mps 762 mmHg 78%
    08:00 +1°C° 0.3 mm 5 mps 761 mmHg 80%
    09:00 +1°C° 0.3 mm 6 mps 761 mmHg 81%
    10:00 +2°C° 0.4 mm 6 mps 761 mmHg 84%
    11:00 +2°C° 0.4 mm 6 mps 761 mmHg 87%
    12:00 +3°C° 0.4 mm 6 mps 761 mmHg 89%
    13:00 +4°C° 0.3 mm 6 mps 760 mmHg 91%
    14:00 +6°C° 0.3 mm 5 mps 760 mmHg 92%
    15:00 +6°C° 0.3 mm 5 mps 760 mmHg 93%
    16:00 +7°C° 0.2 mm 5 mps 760 mmHg 93%
    17:00 +7°C° 0.2 mm 5 mps 760 mmHg 93%
    18:00 +7°C° 0.2 mm 5 mps 760 mmHg 93%
    19:00 +7°C° 0.1 mm 6 mps 760 mmHg 93%
    20:00 +8°C° 0.1 mm 6 mps 760 mmHg 93%
    21:00 +8°C° 0.1 mm 6 mps 761 mmHg 92%
    22:00 +8°C° 0 mm 6 mps 761 mmHg 92%
    23:00 +8°C° 0 mm 6 mps 761 mmHg 91%
    Show more